Back to catalog

STARLINK-38237

AliveCommunicationsSSO
NORAD 100373·PAYLOAD·🇺🇸 United States

Launched Aug 19, 2026 from Vandenberg Space Force Base

Loading…

Next Passes (next 24 hours)

TLE

FreshSource: Space-Track

Epoch: Sep 14, 2026, 13:54 UTC

1 A0373U 26190C   26257.57937220  .00090783  00000-0  60246-3 0  9996
2 A0373  97.2838 111.6445 0001360  82.7588 277.3832 15.75213297  5449

Track STARLINK-38237 in real time with AllMySat

Download on the App Store